User: anonymous   Login
Location: Durham
(54.7770°N, 1.5720°W)
Time: 23:53:54
(UTC+01:00)
Language:

ISS - Orbit

View from above orbital plane
View from above orbital plane
View from above satellite
View from above satellite

Ground track
Ground track

The orbit data is extracted from the following two-line orbital elements,

1 25544U 98067A   17268.53831863  .00016717  00000-0  10270-3 0  9031
2 25544  51.6372 258.0650 0004374 323.4266  36.6588 15.54263356 37350
Epoch (UTC): 25 September 2017 12:55:10
Eccentricity: 0.0004374
inclination: 51.6372°
perigee height: 401 km
apogee height: 407 km
right ascension of ascending node: 258.0650°
argument of perigee: 323.4266°
revolutions per day: 15.54263356
mean anomaly at epoch: 36.6588°
orbit number at epoch: 3735

The dashed part of the orbit path shows where the satellite is in the earth's shadow,  

DLR